Regional Weather Roundup
Issued by NWS

Home | Current Version | Previous Version | Graphics & Text | Print | Product List | Glossary On
Versions: 1 2 3 4 5 6 7 8 9 10 11 12 13 14 15 16 17 18 19 20 21 22 23 24 25 26 27 28 29 30 31 32 33 34 35 36 37 38 39 40 41 42 43 44 45 46 47 48 49 50
831
ASUS43 KDTX 200501
RWRMI
MICHIGAN HOURLY REGIONAL WEATHER ROUNDUP
NATIONAL WEATHER SERVICE DETROIT/PONTIAC MI
100 AM EDT FRI APR 20 2018

NOTE: "FAIR" INDICATES FEW OR NO CLOUDS BELOW 12,000 FEET WITH NO
SIGNIFICANT WEATHER AND/OR OBSTRUCTION TO VISIBILITY.

MIZ047>049-052>055-059>063-066>070-074>076-081>083-200600-
SOUTHEAST LOWER MICHIGAN

CITY           SKY/WX    TMP DP  RH WIND       PRES   REMARKS
ADRIAN         FAIR      37  18  46 N5        30.36R WCI  33
ALMA           FAIR      36  19  51 NW6       30.38R WCI  31
ANN ARBOR      FAIR      38  18  44 NW8       30.34R WCI  32
BAD AXE        FAIR      36  20  52 NW6       30.33R WCI  31
CARO           FAIR      35  23  60 NW5       30.34R WCI  31
DETROIT CITY   FAIR      36  25  64 W5        30.34R WCI  32
DETROIT        FAIR      36  27  69 SW5       30.35R WCI  32
FLINT          FAIR      35  21  56 NW6       30.35R WCI  30
GROSSE ILE     FAIR      33  29  87 CALM      30.34R
HILLSDALE      FAIR      34  19  55 NW7       30.35R WCI  28
HOWELL         FAIR      33  21  60 NW7       30.35R WCI  27

CITY           SKY/WX    TMP DP  RH WIND       PRES   REMARKS
JACKSON        FAIR      40  15  36 NW8       30.36R WCI  34
LAMBERTVILLE   FAIR      35  32  88 CALM      30.35R
LANSING        FAIR      36  17  46 N6        30.37R WCI  31
LAPEER         NOT AVBL
MASON          FAIR      38  14  37 N6        30.37R WCI  33
MONROE         FAIR      32  30  92 CALM      30.34R
MT. CLEMENS    FAIR      35  26  70 W8          N/A  WCI  29
PONTIAC        FAIR      38  21  50 NW7       30.32R WCI  33
PORT HOPE        N/A     37  28  70 NW12      30.29R WCI  29
PORT HURON     FAIR      28  25  86 W3        30.32R
TRI CITIES     FAIR      35  21  56 NW8       30.36R WCI  29
MIDLAND        NOT AVBL
TROY           FAIR      40  22  48 NW7       30.35R WCI  35
SAGINAW HB     FAIR      34  23  64 NW7       30.35R WCI  28
$$
MIZ043>046-050>051-056>058-064>065-071>073-077>080-200600-
SOUTHWEST LOWER MICHIGAN

CITY           SKY/WX    TMP DP  RH WIND       PRES   REMARKS
BATTLE CREEK   FAIR      35  21  56 NW8       30.39R WCI  29
BENTON HARBOR  FAIR      30  25  81 CALM      30.43R
BIG RAPIDS     FAIR      32  15  49 W7        30.38R WCI  25
COLDWATER      FAIR      34  24  65 NW6       30.38R WCI  29
HOLLAND        FAIR      31  25  78 W3        30.41R
GRAND RAPIDS   FAIR      37  20  50 NW8       30.39R WCI  31
KALAMAZOO      FAIR      35  18  49 N10       30.39R WCI  27
LUDINGTON      FAIR      27  26  94 CALM      30.41R
MARSHALL       FAIR      34  16  48 W3        30.37R
MOUNT PLEASANT FAIR      37  20  51 W5        30.37R WCI  33
MUSKEGON       FAIR      31  20  63 NW5       30.42R WCI  26
SOUTH HAVEN    FAIR      29  26  90 CALM      30.42R
$$
MIZ016>042-200600-
NORTHERN LOWER MICHIGAN

CITY           SKY/WX    TMP DP  RH WIND       PRES   REMARKS
ALPENA         FAIR      33  20  58 NW7       30.33R WCI  27
BEAVER ISLAND  FAIR      35  19  52 NW3       30.38R
BELLAIRE       FAIR      26  22  85 CALM      30.40R
CADILLAC       FAIR      26  19  72 CALM      30.36R
CHARLEVOIX     FAIR      32  19  59 CALM      30.41R
FRANKFORT      FAIR      29  23  78 CALM      30.41R
GAYLORD        FAIR      31  16  54 NW3       30.34R
GRAYLING       FAIR      26  20  77 CALM      30.35R
HARBOR SPRINGS FAIR      30  24  78 CALM      30.38R
HOUGHTON LAKE  FAIR      31  16  54 NW6       30.36R WCI  25
MANISTEE       FAIR      25  22  88 CALM      30.41R
OSCODA         FAIR      35  18  49 NW7       30.32R WCI  29
PELLSTON       FAIR      31  20  63 W6        30.37R WCI  25
ROGERS CITY    FAIR      34  22  62 NW8       30.35R WCI  27
TRAVERSE CITY  FAIR      29  23  78 CALM      30.39R
$$
MIZ007>008-015-200600-
EASTERN UPPER MICHIGAN

CITY           SKY/WX    TMP DP  RH WIND       PRES   REMARKS
KINROSS        FAIR      30  25  81 NW12      30.35R WCI  20
MACKINAC ISLAN FAIR      31  20  63 N7        30.35S WCI  25
NEWBERRY       FAIR      24  17  74 CALM      30.36R
S. S. MARIE    FAIR      32  26  78 W8        30.35R WCI  25
MUNISING         N/A     28  20  71 S6        30.38R WCI  22
$$
MIZ004>006-011>014-085-200600-
CENTRAL UPPER MICHIGAN

CITY           SKY/WX    TMP DP  RH WIND       PRES   REMARKS
MANISTIQUE     FAIR      32  11  41 NW6       30.37R WCI  26
ESCANABA       FAIR      28  18  66 CALM      30.40R
MENOMINEE      FAIR      27  20  75 CALM      30.42R
$$
MIZ001>003-009>011-084-200600-
WESTERN UPPER MICHIGAN

CITY           SKY/WX    TMP DP  RH WIND       PRES   REMARKS
IRON MOUNTAIN  FAIR      26  15  63 CALM      30.38R
HOUGHTON       FAIR      29  12  49 NW9       30.36S WCI  20
COPPER HARBOR    N/A     28  17  63 W5        30.37S WCI  23
IRONWOOD       FAIR      26  19  74 CALM      30.40S
$$

ABBREVIATIONS USED IN REMARKS
   TC - TEMPERATURE IN CELSIUS
  WCI - WIND CHILL INDEX
   HX - HEAT INDEX
  VSB - VISIBILITY





USA.gov is the U.S. government's official web portal to all federal, state and local government web resources and services.